Вернуться в каталог

STARLINK-32656

АктивенСвязьVLEO
NORAD 62452·PAYLOAD·🇺🇸 United States

Запущен Dec 29, 2024 с Vandenberg Space Force Base

Loading…

Ближайшие Пролёты (ближайшие 24 часа)

TLE

СвежийSource: CelesTrak SupGP

Эпоха: Sep 15, 2026, 03:31 UTC

1 62452C 24251W   26258.14701389 -.00100200  00000+0 -29618-2 0  2589
2 62452  53.1583 172.5622 0001223  90.2649 272.0819 15.34425987    17

Отслеживайте STARLINK-32656 в реальном времени с AllMySat

Download on the App Store